,

(GMT )
Port Weller

Weather History for CWWZ - January, 2013

Change the Weather History Date:

Wednesday, January 30, 2013

  Actual Average Record
Temperature  
Mean Temperature 51 °F -  
Max Temperature 63 °F - - ()
Min Temperature 39 °F - - ()
Degree Days  
Heating Degree Days 14    
Growing Degree Days 1 (Base 50)    
Moisture  
Dew Point 48 °F    
Average Humidity 77    
Maximum Humidity 96    
Minimum Humidity 52    
Precipitation  
Precipitation 0.24 in - - ()
Sea Level Pressure  
Sea Level Pressure 29.29 in    
Wind  
Wind Speed 14 mph ()    
Max Wind Speed 24 mph    
Max Gust Speed 31 mph    
T = Trace of Precipitation, MM = Missing Value Source: Averaged Metar Reports

Daily Weather History Graph

Daily Weather History Graph

Search for Another Location

Airport or City:

Trip Planner

Search our weather history database for the weather conditions in past years. The results will help you decide how hot, cold, wet, or windy it might be!

Date:

Astronomy

Jan. 30, 2013 Rise Set
Actual Time 7:34 AM EST 5:26 PM EST
Civil Twilight 7:03 AM EST 5:57 PM EST
Nautical Twilight 6:29 AM EST 6:31 PM EST
Astronomical Twilight 5:56 AM EST 7:04 PM EST
Moon 9:31 PM EST (1/30) 8:53 AM EST (1/30)
Length of Visible Light 10h 53m
Length of Day
9h 52m
Waning Gibbous, 88% of the Moon is Illuminated
Jan 30
Waning Gibbous
Feb 3
Last Quarter
Feb 10
New
Feb 17
First Quarter
Feb 25
Full

Hourly Weather History & Observations

Time (EST) Temp. Windchill Dew Point Humidity Pressure Visibility Wind Dir Wind Speed Gust Speed Precip Events Conditions
12:00 AM 51.1 °F - 48.0 °F 89% 29.64 in - South 17.3 mph - N/A   Unknown
1:00 AM 53 °F - 47 °F 73% 29.56 in - South 20.7 mph - -  
1:00 AM 53.2 °F - 46.9 °F 79% 29.56 in - South 20.7 mph - N/A   Unknown
3:00 AM 57.2 °F - 48.4 °F 72% 29.49 in - South 18.4 mph 24.2 mph N/A   Unknown
4:00 AM 59 °F - 48 °F 59% 29.44 in - South 21.9 mph - -  
5:00 AM 60.8 °F - 48.2 °F 63% 29.39 in - South 24.2 mph 31.1 mph N/A   Unknown
6:00 AM 59.5 °F - 47.3 °F 64% 29.37 in - South 20.7 mph - N/A   Unknown
7:00 AM 61 °F - 48 °F 52% 29.34 in - South 18.4 mph - -  
7:00 AM 61.3 °F - 48.0 °F 62% 29.34 in - South 18.4 mph 28.8 mph N/A   Unknown
8:00 AM 61.0 °F - 48.0 °F 62% 29.32 in - SSW 16.1 mph 24.2 mph N/A   Unknown
9:00 AM 61.9 °F - 48.9 °F 62% 29.28 in - South 17.3 mph 24.2 mph N/A   Unknown
10:00 AM 56 °F - 51 °F 77% 29.29 in - SSW 13.8 mph - -  
10:00 AM 55.6 °F - 50.7 °F 84% 29.29 in - SSW 13.8 mph 24.2 mph 0.08 in   Unknown
11:00 AM 55.9 °F - 51.6 °F 85% 29.27 in - SSW 13.8 mph 23.0 mph 0.08 in   Unknown
12:00 PM 55.9 °F - 50.9 °F 83% 29.24 in - South 23.0 mph 29.9 mph N/A   Unknown
1:00 PM 50 °F - 47 °F 86% 29.24 in - SSW 6.9 mph - -  
1:00 PM 49.6 °F - 47.1 °F 91% 29.24 in - SSW 6.9 mph - N/A   Unknown
2:00 PM 51.8 °F - 45.1 °F 78% 29.24 in - SW 8.1 mph - N/A   Unknown
3:00 PM 51.6 °F - 47.3 °F 85% 29.25 in - SW 6.9 mph - N/A   Unknown
4:00 PM 53 °F - 48 °F 76% 29.26 in - SW 6.9 mph - -  
4:00 PM 53.4 °F - 47.7 °F 81% 29.26 in - SW 6.9 mph - N/A   Unknown
5:00 PM 51.1 °F - 46.8 °F 85% 29.24 in - SW 3.5 mph - N/A   Unknown
6:00 PM 54.3 °F - 47.1 °F 77% 29.21 in - SSW 5.8 mph - N/A   Unknown
7:00 PM 55 °F - 47 °F 66% 29.18 in - SSW 9.2 mph - -  
7:00 PM 55.0 °F - 46.8 °F 74% 29.18 in - SSW 9.2 mph - N/A   Unknown
8:00 PM 52.2 °F - 46.2 °F 80% 29.17 in - SSW 8.1 mph - N/A   Unknown
9:00 PM 51.8 °F - 48.2 °F 88% 29.14 in - South 8.1 mph - N/A   Unknown
10:00 PM 46 °F - 44 °F 91% 29.10 in - WSW 8.1 mph - -  
10:00 PM 45.9 °F 41.7 °F 44.2 °F 94% 29.10 in - WSW 8.1 mph 18.4 mph 0.10 in   Unknown
11:00 PM 46.2 °F 45.0 °F 45.1 °F 96% 29.06 in - SSW 3.5 mph - 0.05 in   Unknown